Location: Unspecified
(0.0000°N, 0.0000°E)
Time: 02:23:47
(UTC+00:00)

Envisat - Pass Details

Date: 18 October 2020
Orbit: 764 x 766 km, 98.1° (Epoch: 25 October)

Event Time Altitude Azimuth Distance (km) Brightness Sun altitude
Rises 18:37:31 0° 200° (SSW) 3,230 6.7 -12.9°
Reaches altitude 10° 18:40:44 10° 222° (SW) 2,301 6.3 -13.7°
Maximum altitude 18:43:40 16° 257° (WSW) 1,939 6.3 -14.4°
Drops below altitude 10° 18:46:36 10° 293° (WNW) 2,295 6.3 -15.2°
Sets 18:49:49 0° 315° (NW) 3,217 6.7 -15.9°
